Weather History for Astoria, OR

Change the Weather History Date:

Thursday, February 21, 2013

  Actual Average Record
Temperature  
Mean Temperature 44 °F 44 °F  
Max Temperature 47 °F 52 °F 68 °F (1973)
Min Temperature 41 °F 37 °F 24 °F (1894)
Degree Days  
Heating Degree Days 21 20  
Month to date heating degree days 428 440  
Since 1 July heating degree days 3238 3205  
Cooling Degree Days 0 0  
Month to date cooling degree days 0 0  
Year to date cooling degree days 0 0  
Moisture  
Dew Point 40 °F    
Average Humidity 87    
Maximum Humidity 92    
Minimum Humidity 82    
Precipitation  
Precipitation 0.50 in 0.24 in 2.06 in (1935)
Month to date precipitation 2.63 5.43  
Year to date precipitation 11.73 15.63  
Snow  
Snow 0.00 in - - ()
Month to date snowfall 0.0  
Snow Depth 0.00 in    
Sea Level Pressure  
Sea Level Pressure 30.11 in    
Wind  
Wind Speed 9 mph (SW)    
Max Wind Speed 21 mph    
Max Gust Speed 32 mph    
Visibility 7 miles    
Events Rain    
T = Trace of Precipitation, MM = Missing Value Source: NWS Daily Summary

Daily Weather History Graph

Daily Weather History Graph

Search for Another Location

Airport:

Trip Planner

Search our weather history database for the weather conditions in past years. The results will help you decide how hot, cold, wet, or windy it might be!

Date:

Astronomy

Feb. 21, 2013 Rise Set
Actual Time 7:07 AM PST 5:50 PM PST
Civil Twilight 6:37 AM PST 6:21 PM PST
Nautical Twilight 6:02 AM PST 6:56 PM PST
Astronomical Twilight 5:28 AM PST 7:30 PM PST
Moon 2:02 PM PST (2/21) 4:25 AM PST (2/21)
Length of Visible Light 11h 43m
Length of Day
10h 42m
Waxing Gibbous, 84% of the Moon is Illuminated
Feb 21
Waxing Gibbous
Feb 25
Full
Mar 4
Last Quarter
Mar 11
New
Mar 19
First Quarter

Hourly Weather History & Observations

Time (PST) Temp. Windchill Dew Point Humidity Pressure Visibility Wind Dir Wind Speed Gust Speed Precip Events Conditions
12:28 AM 44.6 °F 39.2 °F 39.2 °F 81% 30.06 in 10.0 mi West 10.4 mph - 0.00 in Rain Light Rain
12:55 AM 43.0 °F 36.8 °F 39.0 °F 86% 30.08 in 10.0 mi West 11.5 mph - 0.00 in   Overcast
1:55 AM 43.0 °F 38.2 °F 39.0 °F 86% 30.10 in 10.0 mi West 8.1 mph - 0.01 in Rain Light Rain
2:55 AM 43.0 °F 39.5 °F 35.1 °F 74% 30.11 in 10.0 mi West 5.8 mph - 0.00 in   Mostly Cloudy
3:55 AM 43.0 °F 39.5 °F 37.0 °F 80% 30.11 in 10.0 mi WSW 5.8 mph - N/A   Overcast
4:55 AM 43.0 °F 37.7 °F 37.9 °F 82% 30.13 in 5.0 mi West 9.2 mph - 0.00 in Rain Light Rain
5:55 AM 43.0 °F 38.8 °F 36.0 °F 76% 30.12 in 10.0 mi WSW 6.9 mph - 0.01 in   Overcast
6:55 AM 42.1 °F 35.2 °F 37.0 °F 82% 30.14 in 9.0 mi West 12.7 mph - 0.00 in Rain Light Rain
7:21 AM 42.8 °F 37.0 °F 37.4 °F 81% 30.14 in 6.0 mi SW 10.4 mph - 0.02 in Rain Light Rain
7:55 AM 42.1 °F 37.7 °F 39.0 °F 89% 30.14 in 8.0 mi SW 6.9 mph - 0.03 in Rain Light Rain
8:13 AM 42.8 °F 39.3 °F 39.2 °F 87% 30.14 in 7.0 mi SSW 5.8 mph - 0.01 in Rain Light Rain
8:55 AM 43.0 °F 35.7 °F 39.0 °F 86% 30.14 in 4.0 mi West 15.0 mph 21.9 mph 0.07 in Rain Rain
9:47 AM 42.8 °F 38.6 °F 39.2 °F 87% 30.13 in 5.0 mi SSW 6.9 mph - 0.09 in Rain Light Rain
9:55 AM 42.1 °F 37.1 °F 39.0 °F 89% 30.12 in 10.0 mi SSW 8.1 mph - 0.09 in Rain Light Rain
10:55 AM 43.0 °F 37.7 °F 39.9 °F 89% 30.12 in 10.0 mi SSW 9.2 mph - N/A   Overcast
11:55 AM 45.0 °F 37.6 °F 39.0 °F 80% 30.11 in 10.0 mi South 17.3 mph 26.5 mph N/A   Overcast
12:53 PM 44.6 °F 36.9 °F 39.2 °F 81% 30.09 in 5.0 mi SSW 18.4 mph 27.6 mph 0.00 in Rain Light Rain
12:55 PM 44.1 °F 36.2 °F 39.9 °F 85% 30.09 in 4.0 mi SSW 18.4 mph 27.6 mph 0.01 in Rain Light Rain
1:27 PM 44.6 °F 36.9 °F 41.0 °F 87% 30.09 in 2.0 mi SSW 18.4 mph 32.2 mph 0.03 in Rain Rain
1:33 PM 44.6 °F 38.1 °F 42.8 °F 93% 30.09 in 1.2 mi SW 13.8 mph 32.2 mph 0.06 in Rain Heavy Rain
1:35 PM 44.6 °F 37.4 °F 42.8 °F 93% 30.10 in 1.0 mi SW 16.1 mph 32.2 mph 0.08 in Rain Heavy Rain
1:43 PM 44.6 °F 37.8 °F 42.8 °F 93% 30.08 in 0.8 mi WSW 15.0 mph 24.2 mph 0.23 in Rain Heavy Rain
1:48 PM 44.6 °F 36.6 °F 42.8 °F 93% 30.09 in 1.8 mi WSW 19.6 mph 29.9 mph 0.25 in Rain Light Rain
1:51 PM 44.6 °F 37.4 °F 42.8 °F 93% 30.09 in 3.0 mi SW 16.1 mph 29.9 mph 0.25 in Rain Light Rain
1:55 PM 45.0 °F 37.9 °F 43.0 °F 93% 30.08 in 2.5 mi SW 16.1 mph 29.9 mph 0.27 in Rain Rain
2:07 PM 46.4 °F 40.1 °F 44.6 °F 93% 30.08 in 9.0 mi SW 15.0 mph 23.0 mph 0.01 in Rain Light Rain
2:17 PM 46.4 °F 40.4 °F 44.6 °F 93% 30.08 in 10.0 mi WSW 13.8 mph 20.7 mph 0.01 in   Overcast
2:55 PM 46.9 °F - 44.1 °F 90% 30.08 in 10.0 mi WSW 9.2 mph - 0.01 in Rain Light Rain
3:55 PM 46.0 °F 41.0 °F 43.0 °F 89% 30.09 in 10.0 mi SW 10.4 mph - 0.00 in   Overcast
4:55 PM 45.0 °F 39.7 °F 41.0 °F 86% 30.10 in 10.0 mi WSW 10.4 mph - N/A   Overcast
5:55 PM 45.0 °F 43.5 °F 42.1 °F 90% 30.11 in 9.0 mi SW 3.5 mph - N/A   Overcast
6:12 PM 44.6 °F 42.2 °F 42.8 °F 93% 30.12 in 8.0 mi WSW 4.6 mph - N/A   Overcast
6:35 PM 44.6 °F 41.4 °F 41.0 °F 87% 30.13 in 10.0 mi West 5.8 mph - N/A   Overcast
6:55 PM 45.0 °F 43.5 °F 39.9 °F 82% 30.12 in 10.0 mi WSW 3.5 mph - N/A   Overcast
7:55 PM 44.1 °F 41.5 °F 41.0 °F 89% 30.12 in 8.0 mi SW 4.6 mph - N/A   Mostly Cloudy
8:32 PM 44.6 °F 42.2 °F 41.0 °F 87% 30.12 in 8.0 mi SW 4.6 mph - N/A   Mostly Cloudy
8:55 PM 44.1 °F 42.5 °F 41.0 °F 89% 30.13 in 8.0 mi SW 3.5 mph - N/A   Overcast
9:19 PM 44.6 °F 43.1 °F 41.0 °F 87% 30.14 in 8.0 mi SW 3.5 mph - N/A   Mostly Cloudy
9:55 PM 43.0 °F 40.3 °F 39.9 °F 89% 30.13 in 8.0 mi SSW 4.6 mph - N/A   Overcast
10:55 PM 44.1 °F 41.5 °F 39.9 °F 85% 30.12 in 9.0 mi SSW 4.6 mph - N/A   Mostly Cloudy
11:55 PM 43.0 °F 40.3 °F 41.0 °F 93% 30.11 in 7.0 mi South 4.6 mph - N/A   Overcast